Regional Weather Roundup
Issued by NWS

Home | Current Version | Previous Version | Graphics & Text | Print | Product List | Glossary On
Versions: 1 2 3 4 5 6 7 8 9 10 11 12 13 14 15 16 17 18 19 20 21 22 23 24 25 26 27 28 29 30 31 32 33 34 35 36 37 38 39 40 41 42 43 44 45 46 47 48 49 50
000
ASUS43 KDMX 272007
RWRIA

WEATHER ROUNDUP FOR IOWA
NATIONAL WEATHER SERVICE DES MOINES IA
300 PM CDT SUN JUL 27 2014

NOTE: "FAIR" INDICATES FEW OR NO CLOUDS BELOW 12,000 FEET WITH NO
SIGNIFICANT WEATHER AND/OR OBSTRUCTIONS TO VISIBILITY.

* - THESE STATIONS ARE NOT NWS STATIONS...THUS NOT UNDER NWS
QUALITY CONTROL.  THEY ALSO DO NOT REPORT WEATHER SUCH
AS PRECIPITATION OR FOG.

IAZ001>003-012>014-020>022-031>034-043>046-272100-
   NORTHWEST IOWA

CITY           SKY/WX    TMP DP  RH WIND       PRES   REMARKS
CARROLL *      PTSUNNY   73  57  56 NW17G29   30.07R
CHEROKEE *     CLOUDY    72  57  60 NW18G24   30.10S
DENISON *      CLOUDY    73  57  56 N18       30.07R
LE MARS *      PTSUNNY   73  57  56 N15G28    30.12R
ORANGE CITY *  PTSUNNY   73  55  53 NW15      30.12R
SHELDON *      CLOUDY    70  57  64 N15G22    30.10S
SIOUX CITY     PTSUNNY   78  58  49 N20G28    30.10R
SPENCER        CLOUDY    69  56  62 NW18G28   30.09R
STORM LAKE *   CLOUDY    70  59  68 NW18G28   30.10R
$$

IAZ055>058-069>071-079>083-090>094-272100-
   SOUTHWEST IOWA

CITY           SKY/WX    TMP DP  RH WIND       PRES   REMARKS
ATLANTIC *     MOSUNNY   79  57  47 NW24      30.06S HX  80
AUDUBON *      MOSUNNY   79  63  57 NW16G24   30.08S HX  80
CLARINDA *     SUNNY     81  59  47 NW15G24   30.07F HX  81
COUNCIL BLFS * SUNNY     79  59  50 N16G25    30.08S HX  80
CRESTON *      MOSUNNY   79  59  50 NW18G26   30.05R HX  80
HARLAN  *      MOSUNNY   75  59  57 N15G26    30.11S
LAMONI         SUNNY     81  56  42 NW25G36   30.02S HX  81
RED OAK *      MOSUNNY   81  57  44 NW16G29   30.07S HX  81
SHENANDOAH *   MOSUNNY   81  59  47 N15G24    30.07S HX  81
$$

IAZ047>049-059>061-072>074-084-272100-
   CENTRAL IOWA

CITY           SKY/WX    TMP DP  RH WIND       PRES   REMARKS
AMES           PTSUNNY   74  59  59 NW18G31   30.01R
ANKENY *       MOSUNNY   77  57  50 NW17G26   30.00S
CHARITON *     PTSUNNY   77  59  53 NW24      30.01R
DES MOINES     PTSUNNY   77  56  48 NW24G31   30.00S
GRINNELL*      MOSUNNY   73  57  56 NW17G30   29.98S
KNOXVILLE *    PTSUNNY   75  57  53 NW23      29.98S
MARSHALLTOWN   CLOUDY    73  58  59 NW22G33   29.98R
PELLA *        MOSUNNY   75  59  57 NW18G25   30.00R
PERRY *        CLOUDY    75  59  57 NW16G26   30.04S
$$

IAZ004>006-015-016-023>025-035-036-272100-
   NORTH CENTRAL IOWA

CITY           SKY/WX    TMP DP  RH WIND       PRES   REMARKS
ALGONA *       MOSUNNY   72  59  64 NW16G30   30.04F
CLARION *      MOSUNNY   72  59  64 NW22G31   30.02S
ESTHERVILLE    PTSUNNY   68  57  68 NW23G35   30.06R
FORT DODGE *   CLOUDY    70  57  64 NW14G20   30.06R
MASON CITY     CLOUDY    72  59  63 NW20G26   29.99S
FOREST CITY *  CLOUDY    70  59  68 NE20G25   30.00R
IOWA FALLS *   CLOUDY    70  57  64 NW18G31   30.01S
$$

IAZ007>011-017>019-026>030-037>042-050>054-066-272100-
   NORTHEAST IOWA

CITY           SKY/WX    TMP DP  RH WIND       PRES   REMARKS
CEDAR RAPIDS   PTSUNNY   75  58  55 NW25G35   29.91S
CHARLES CITY * PTSUNNY   72  59  64 NW21G29   29.95R
CLINTON *      MOSUNNY   75  59  57 NW23G31   29.88R
DECORAH *      CLOUDY    70  57  64 NW15G28   29.89S
DUBUQUE        MOSUNNY   73  59  61 NW17G30   29.87R
MONTICELLO *   MOSUNNY   75  59  57 NW22G31   29.88S
OELWEIN *      MOSUNNY   72  61  68 NW23G31   29.92S
WATERLOO       PTSUNNY   72  58  61 NW16G30   29.93S
$$

IAZ064-065-067-068-078-272100-
   EAST CENTRAL IOWA

CITY           SKY/WX    TMP DP  RH WIND       PRES   REMARKS
DAVENPORT      PTSUNNY   76  58  53 NW25G36   29.87R
IOWA CITY      PTSUNNY   77  59  53 NW18G35   29.92R
MT. PLEASANT * PTSUNNY   77  57  50 NW18G29   29.93R
MUSCATINE *    MOSUNNY   79  59  50 NW17G29   29.90S HX  80
QUAD CITIES    PTSUNNY   79  58  48 NW23G33   29.86R HX  80
$$

IAZ062-063-075>077-085>089-095>099-272100-
   SOUTHEAST IOWA

CITY           SKY/WX    TMP DP  RH WIND       PRES   REMARKS
BURLINGTON     MOSUNNY   79  61  53 NW18G35   29.91R HX  80
FAIRFIELD *    PTSUNNY   75  59  57 NW18G28   29.96R
FORT MADISON *   N/A     79  61  53 NW16      29.93R HX  80
KEOKUK *       MOSUNNY   81  59  47 NW16G30   29.91S HX  81
OSKALOOSA *    PTSUNNY   75  61  60 NW23G29   29.98S
CENTERVILLE *  SUNNY     81  59  47 NW13G29   30.00R HX  81
OTTUMWA        PTSUNNY   76  59  55 NW25      29.97R
WASHINGTON *   MOSUNNY   77  61  57 NW15G32   29.94R
$$

ABBREVIATIONS USED IN REMARKS
   TC - TEMPERATURES IN CELSIUS
  WCI - WIND CHILL INDEX
   HX - HEAT INDEX
  VSB - VISIBILITY
$$




USA.gov is the U.S. government's official web portal to all federal, state and local government web resources and services.